Wind_Speed
23 19 15 9 6 4 5 5 3 4 4 5 4 2 3 2 1 2 3 3 2 3 3 2 2 3 3 1 1 1 1 0 4 2 2 5 7 13 14 17 24 26 24 22 23 24 23 22 21 19 18 17 16 16 15 14 13 12 13 14 13 13 14 13 13 12 12 12 12 12 12 12 12 12 11 11 12 11 11 11 11 11 11 10 10 10 10 10 9 8 8 7 6 6 6 7 7
18 14 11 8 6 5 3 3 4 4 5 6 4 3 5 4 4 3 1 2 2 4 3 2 3 4 2 3 3 3 2 3 8 7 6 8 12 14 15 20 25 25 24 23 23 24 22 22 21 20 18 17 16 15 14 13 12 13 14 14 14 14 14 13 13 13 12 12 11 11 11 12 12 11 12 12 12 12 12 12 11 11 11 10 10 10 10 9 9 9 8 7 6 5 5 5 6
14 13 11 8 5 4 1 3 5 2 4 5 3 4 6 5 4 2 1 1 2 2 2 4 4 4 4 4 4 5 3 4 7 8 7 11 12 14 18 22 25 24 23 23 23 23 22 22 21 20 18 17 16 15 13 13 14 15 15 14 14 14 14 13 13 13 13 12 12 11 11 11 11 11 12 12 12 12 12 12 11 11 10 10 9 9 9 9 9 9 8 7 6 5 5 4 4
13 12 11 9 4 3 2 4 4 3 5 3 2 3 4 3 4 5 4 3 2 3 2 4 4 2 4 3 2 3 3 5 6 5 7 10 10 17 21 23 25 23 22 22 23 22 21 23 21 20 18 16 15 13 13 15 17 16 15 14 13 13 14 13 13 13 12 12 11 11 11 11 11 11 11 12 12 12 11 11 11 10 10 9 9 9 9 8 8 8 7 6 6 5 5 5 5
12 9 9 8 4 2 2 3 4 5 4 2 1 3 4 3 5 6 6 5 4 5 4 5 3 3 3 1 3 2 4 5 6 5 7 10 13 21 23 25 24 22 22 22 22 21 22 23 21 19 17 15 13 13 15 17 17 15 14 13 13 13 13 13 13 12 12 11 11 11 11 10 10 10 10 10 10 10 9 10 10 9 9 8 8 8 8 7 7 7 6 6 6 5 5 5 5
11 8 5 4 3 2 3 4 4 6 3 2 0 4 4 4 5 5 5 4 3 4 5 5 3 4 5 3 3 2 4 2 5 6 8 13 19 23 24 25 23 22 22 21 21 20 22 24 21 18 17 14 14 15 17 18 16 14 14 13 13 13 13 13 12 12 12 11 11 11 11 10 9 9 9 9 9 9 8 8 8 9 9 8 7 7 7 6 6 6 6 6 5 5 5 5 5
11 8 3 4 3 3 5 5 5 5 2 1 2 3 4 4 4 3 3 3 2 3 5 5 4 5 4 5 5 4 5 3 4 6 9 16 22 24 25 24 22 22 21 21 20 20 23 23 21 18 15 14 16 18 17 15 14 14 14 14 14 14 13 13 12 12 12 11 11 10 10 10 9 9 9 9 9 8 8 8 7 7 7 6 6 6 6 5 5 5 5 6 6 6 6 5 6
9 6 3 4 4 4 6 6 5 5 1 2 3 1 1 3 3 3 3 2 1 3 5 5 7 6 3 4 5 5 5 5 5 8 13 20 23 25 25 24 23 22 21 20 19 20 22 21 20 17 15 16 19 18 15 14 14 14 14 14 14 14 13 12 12 11 11 11 10 10 10 9 8 9 9 8 8 8 8 7 7 6 6 6 6 5 5 5 5 5 5 5 5 5 5 5 5
9 5 2 4 5 5 6 6 5 5 3 2 3 3 2 3 4 5 4 3 2 3 6 7 8 5 4 5 4 6 5 6 7 10 15 20 24 25 24 23 23 22 21 19 19 20 20 20 19 17 17 19 20 17 14 14 14 14 14 14 13 13 12 12 11 11 11 10 10 10 9 9 8 8 8 8 7 7 7 6 6 6 5 5 5 5 5 5 4 4 4 3 3 3 3 3 3
6 4 3 4 5 6 7 6 4 3 3 4 4 5 4 4 5 6 6 4 3 3 5 6 7 5 6 6 5 5 5 7 9 12 16 20 23 24 23 23 22 22 21 19 19 19 19 18 18 17 19 20 18 16 14 14 14 14 14 14 13 12 12 11 11 10 10 10 9 9 9 8 8 7 7 7 6 6 6 6 6 5 5 4 4 4 4 4 4 3 3 3 3 3 3 3 3
4 4 3 4 6 7 6 4 4 2 2 3 5 5 4 5 6 6 7 5 3 4 5 6 6 6 6 6 5 5 6 7 10 14 17 21 22 22 22 23 22 21 20 19 19 19 19 18 18 19 20 19 17 16 15 14 14 14 14 13 12 12 11 11 11 10 10 9 9 8 8 8 8 7 6 6 5 4 4 5 4 4 4 4 3 3 3 3 3 3 3 2 2 2 2 2 3
5 4 4 5 6 5 5 4 4 3 4 6 6 4 2 5 7 7 7 6 5 5 7 8 6 7 7 5 5 6 8 9 12 16 19 21 21 21 22 22 21 20 19 19 19 18 19 18 18 20 18 17 16 16 14 14 14 14 13 12 11 11 11 10 10 10 10 9 8 8 7 7 7 6 5 5 5 4 4 4 4 3 3 2 2 3 3 3 3 3 2 2 2 2 2 2 3
5 3 4 5 5 5 5 6 5 5 6 5 4 1 1 5 7 7 6 6 7 6 8 9 6 7 6 5 6 7 9 11 14 18 20 20 20 20 20 21 20 19 19 18 18 18 19 18 17 18 17 16 16 15 14 14 14 13 13 11 11 11 10 10 10 10 9 8 7 7 6 6 6 5 4 5 5 4 4 4 4 4 3 2 2 3 3 3 3 3 3 2 2 3 3 4 4
5 3 4 4 5 5 6 6 5 6 5 1 1 3 1 4 3 4 5 7 8 6 7 9 7 7 5 5 6 6 9 13 17 20 20 20 20 20 20 20 19 19 19 17 17 18 18 17 17 17 17 16 16 15 14 14 13 13 12 11 11 11 10 10 9 9 8 8 7 6 5 5 5 4 4 4 3 4 5 4 4 4 4 3 3 3 3 3 3 3 4 3 3 4 4 4 5
3 3 3 4 5 5 5 5 6 7 4 3 2 2 3 3 2 4 5 6 5 5 6 8 7 5 5 6 6 9 13 17 20 20 21 21 20 20 19 20 19 18 18 17 16 17 17 16 16 16 16 16 16 15 14 14 14 12 12 12 11 10 10 9 9 9 8 7 6 5 5 5 5 5 4 2 1 2 4 3 3 3 3 3 3 3 4 4 4 4 5 4 5 5 5 5 6
0 2 1 3 4 4 3 4 6 6 3 3 2 1 5 4 4 5 1 1 5 7 6 7 6 1 3 5 8 15 19 21 21 21 21 22 20 19 19 18 18 18 16 16 16 15 16 15 15 15 16 16 15 14 14 14 13 12 11 11 11 10 9 9 9 8 8 7 5 3 4 5 5 4 3 3 1 1 3 4 4 3 3 3 3 3 4 4 5 5 6 6 6 7 7 7 8
2 0 2 3 4 4 2 3 4 5 5 4 2 3 7 5 5 4 3 4 6 9 7 7 6 0 2 6 15 21 22 22 22 23 22 21 20 19 19 18 17 16 15 15 15 15 15 14 14 15 15 15 14 13 13 13 13 12 12 11 10 10 10 9 9 8 7 8 5 3 3 5 5 4 3 4 3 2 3 5 4 3 3 3 3 3 4 5 6 7 7 8 8 8 8 9 9
3 1 3 3 3 3 4 5 6 7 8 7 5 6 8 6 5 5 6 7 8 10 8 6 7 4 8 15 21 23 23 23 23 23 23 21 20 19 18 17 17 16 15 15 14 14 14 14 14 14 14 14 14 12 12 12 13 12 11 10 10 10 9 9 8 8 7 7 6 4 4 4 5 4 4 4 3 4 4 6 5 4 3 3 4 4 5 6 7 9 9 9 9 9 9 9 8
4 3 4 3 2 4 6 7 8 8 9 9 9 7 8 5 5 6 7 10 11 11 9 8 9 10 13 18 21 23 23 23 23 23 22 21 19 19 18 18 17 16 16 15 14 14 13 13 13 13 13 14 13 12 11 11 12 12 11 10 10 10 9 9 8 7 7 7 6 5 4 4 5 4 5 5 5 5 5 6 6 6 5 4 4 5 5 7 8 9 9 9 9 9 8 7 6
3 3 4 2 4 6 6 7 9 8 9 10 9 5 6 4 5 6 8 11 13 11 10 11 11 13 16 17 20 22 22 23 22 21 21 21 19 19 19 18 18 16 16 15 14 14 13 13 13 13 13 13 13 11 10 10 11 11 10 10 10 10 10 9 8 7 7 7 6 5 4 5 5 4 5 5 5 5 4 4 4 4 4 4 4 4 5 6 7 7 7 8 6 6 6 6 5
1 3 5 6 6 6 4 6 8 8 8 9 8 5 5 5 5 5 9 12 11 10 10 12 13 16 18 18 19 20 21 21 21 20 19 20 19 18 18 18 17 16 15 15 14 14 14 14 13 13 13 13 12 11 10 10 10 10 10 10 10 9 9 8 7 7 7 7 6 6 5 5 6 5 5 4 4 4 4 3 3 3 3 3 4 3 4 4 5 5 5 5 4 4 6 6 6
3 5 7 7 6 7 4 6 7 6 8 8 6 6 4 7 6 7 12 11 8 9 10 11 13 16 18 19 18 18 19 18 18 19 18 19 19 18 17 16 16 15 15 14 14 14 14 14 13 13 13 13 12 11 10 9 9 9 9 9 9 8 7 7 7 7 7 7 7 6 5 5 6 6 6 6 5 5 4 4 4 4 4 4 4 3 3 3 3 3 4 4 5 6 6 7 7
4 4 5 5 5 6 5 5 5 6 7 5 4 3 5 9 7 8 11 8 7 9 9 11 13 14 17 18 18 17 18 17 17 18 18 19 18 17 17 16 16 16 15 14 14 14 14 14 13 13 13 13 12 10 9 9 9 9 8 8 7 7 7 7 7 7 7 7 7 7 6 6 6 6 6 6 6 5 5 4 4 4 4 4 4 4 3 3 3 3 4 4 6 7 7 7 8
5 5 4 3 3 4 4 4 3 5 5 1 2 2 6 10 9 7 8 8 8 9 8 12 13 14 16 16 16 16 16 17 17 19 18 17 18 17 17 16 15 15 14 14 13 14 14 14 14 13 13 13 12 11 10 9 9 9 8 8 7 7 7 7 7 7 7 7 8 7 6 6 6 6 6 6 6 5 5 5 4 4 4 3 3 3 3 3 3 3 4 5 5 6 6 6 5
7 6 4 2 2 2 3 2 3 5 4 1 2 4 7 9 10 8 8 8 9 8 9 13 13 14 14 14 15 15 14 16 16 18 17 16 16 16 16 15 15 15 15 15 13 13 14 14 14 14 14 13 13 12 11 9 9 9 9 9 8 8 7 7 6 7 7 7 8 8 7 6 5 5 6 6 6 5 5 5 5 4 4 3 3 3 3 3 3 4 4 5 5 5 5 5 4
3 6 5 3 2 1 2 1 3 4 2 1 4 5 6 9 9 7 7 8 8 8 11 13 14 15 13 12 14 14 14 15 16 17 16 15 16 16 16 15 15 14 15 15 14 13 14 14 14 14 14 14 13 12 12 11 10 10 10 9 8 8 8 7 7 7 7 7 7 8 7 6 5 5 5 5 5 6 5 5 5 4 4 4 4 3 3 3 3 4 4 5 5 5 5 5 5
4 6 4 4 2 1 1 1 3 2 2 1 2 4 6 7 6 4 7 11 10 10 13 13 14 14 13 12 12 13 13 15 16 16 16 15 15 16 16 15 14 14 14 15 14 13 13 14 14 14 14 13 13 12 12 11 11 11 10 9 9 8 8 7 7 7 7 7 6 7 8 7 6 5 5 6 6 6 5 6 5 5 5 4 4 4 3 4 4 5 5 6 5 5 6 6 7
5 6 3 4 3 2 3 2 3 3 2 2 2 2 5 6 5 7 11 13 12 12 13 14 13 13 13 13 12 10 10 13 15 16 16 15 15 16 16 15 15 14 14 15 14 13 14 14 14 14 14 14 14 12 12 12 11 11 10 9 9 8 8 8 7 7 7 7 6 7 7 7 7 6 6 6 5 5 5 6 5 5 5 4 4 5 5 5 6 6 6 6 6 6 7 7 8
5 6 5 4 4 3 4 3 2 3 2 1 2 2 4 4 6 12 13 12 12 11 12 13 13 12 12 13 11 9 10 13 13 14 15 15 15 16 16 15 15 15 14 14 14 13 14 14 13 14 14 15 15 13 12 12 11 11 11 10 9 8 8 8 8 7 7 7 7 8 8 8 8 7 6 6 6 6 6 6 6 6 5 5 5 6 6 6 6 7 7 7 7 7 9 9 9
5 5 4 2 3 2 4 4 3 4 2 2 2 2 5 4 8 13 12 11 11 11 11 11 11 11 11 11 11 10 10 12 12 13 14 14 14 15 16 16 16 15 13 14 14 14 14 13 13 13 14 15 15 14 12 11 11 10 10 10 9 9 9 8 9 8 8 8 8 9 9 9 9 8 7 7 6 6 6 6 6 6 6 5 6 6 7 6 7 7 8 8 8 9 10 9 9
5 3 2 2 1 4 4 5 4 3 1 2 3 2 5 5 8 11 11 11 11 10 11 11 10 10 11 10 10 11 11 11 13 14 14 14 14 14 15 15 16 15 14 14 15 15 14 14 13 13 14 15 15 15 14 12 11 10 10 9 9 9 9 8 9 8 8 8 8 9 9 10 9 8 8 7 7 7 6 6 6 6 6 6 7 7 7 8 8 9 9 9 10 10 10 10 10
5 4 1 3 5 6 6 5 4 3 2 3 4 2 3 4 8 10 10 11 10 10 10 11 11 12 12 11 11 11 11 12 13 14 14 14 13 13 14 15 16 15 14 15 15 15 15 15 14 14 15 16 15 15 14 13 12 10 9 9 9 9 9 9 8 8 8 8 8 8 9 10 9 9 8 8 7 7 7 7 6 6 6 7 8 8 9 9 10 10 9 9 10 10 10 11 11
2 3 4 7 7 5 6 3 3 4 3 2 3 1 1 3 7 9 10 11 10 9 10 12 12 13 12 11 11 11 11 11 12 12 14 14 13 13 13 14 15 15 15 15 15 16 16 15 15 15 15 16 15 14 14 13 12 11 10 9 9 9 9 9 9 9 8 8 8 8 8 9 9 9 9 8 8 8 7 7 7 7 7 8 9 9 10 10 10 10 9 8 8 9 11 12 12
2 4 5 6 7 5 4 3 4 4 2 2 1 2 1 3 7 9 10 11 11 9 10 12 12 12 12 11 11 11 11 11 10 12 14 14 13 13 13 13 14 15 15 15 16 16 16 16 15 15 14 14 14 13 13 12 11 11 11 10 10 10 10 10 10 9 10 10 10 9 9 9 10 10 9 9 9 9 8 8 8 8 8 9 10 11 11 11 11 11 10 8 8 9 10 11 11
6 6 6 5 6 6 5 5 7 7 4 3 4 5 4 5 7 9 10 10 10 9 9 11 12 12 12 11 11 11 11 11 11 13 15 15 14 14 13 13 13 14 14 14 15 15 15 15 14 14 14 13 13 12 12 12 11 11 11 10 10 11 11 11 11 10 10 10 10 10 10 10 10 10 10 10 10 10 9 9 9 9 9 10 11 11 10 10 10 11 11 10 8 8 9 9 9
10 8 7 6 5 5 7 7 9 10 7 6 7 7 6 7 9 10 10 10 9 8 8 10 11 12 11 11 11 11 12 12 13 15 16 15 15 15 13 13 13 12 13 13 14 15 15 15 14 14 14 13 13 12 12 12 11 11 11 11 11 11 11 11 11 11 11 10 10 10 9 10 10 10 11 11 11 11 11 10 10 10 10 10 10 10 9 9 8 9 10 10 9 9 9 8 8
10 9 7 6 5 5 6 7 10 10 7 7 9 8 8 8 10 11 11 11 10 9 9 10 11 11 11 12 12 12 12 11 13 16 16 16 16 15 14 13 14 13 13 13 14 15 15 15 15 14 15 15 14 13 13 13 12 12 11 11 11 11 11 11 11 12 12 11 10 10 10 10 10 11 12 12 12 12 12 11 11 11 10 10 10 9 9 10 9 9 9 9 10 10 10 9 8
9 8 6 4 4 5 5 5 10 11 6 5 8 9 8 8 9 10 11 12 12 11 11 11 12 12 11 12 13 13 12 11 13 15 16 17 17 16 15 14 14 15 14 14 15 15 15 15 15 14 15 16 15 14 13 13 13 12 11 11 11 10 10 10 11 11 11 11 10 11 11 11 11 11 12 13 13 13 12 12 12 11 10 10 10 10 10 11 10 10 10 10 10 10 9 9 8
7 6 5 3 4 4 4 5 8 10 5 3 7 8 8 9 10 11 13 12 11 11 11 12 13 12 12 12 13 13 13 13 13 14 15 17 17 16 16 15 15 16 16 16 16 16 16 15 15 15 15 16 16 15 14 13 12 11 10 9 9 9 8 8 9 10 10 10 10 11 12 13 14 13 13 15 15 14 13 13 12 11 11 10 10 11 10 11 10 10 10 11 11 10 9 9 8
5 4 4 4 6 5 2 3 6 9 5 3 6 6 5 7 9 11 13 12 10 11 12 12 12 13 13 13 13 14 15 14 13 14 15 16 17 17 17 16 16 16 16 17 17 17 17 16 16 16 16 16 16 16 15 13 12 11 10 9 7 8 8 7 8 10 11 11 11 12 12 13 15 15 14 14 14 13 13 13 13 12 12 11 11 12 11 11 12 11 10 10 10 11 10 9 7
3 3 5 6 7 7 4 3 5 8 7 6 5 3 4 7 9 10 11 12 11 11 12 13 13 13 14 14 14 15 15 14 14 15 14 15 16 17 17 17 16 17 17 17 17 17 17 17 18 17 17 16 16 16 16 14 12 11 11 11 9 9 10 10 11 12 12 12 13 12 12 12 14 15 14 15 14 14 14 14 15 13 13 12 12 13 12 11 12 11 10 10 10 11 11 10 8
3 2 6 9 9 7 4 4 5 5 5 7 8 3 3 8 10 10 10 12 13 13 13 14 14 14 14 14 14 15 15 14 14 15 14 14 16 17 18 18 18 18 18 17 17 18 18 17 18 18 17 17 16 15 17 16 14 13 12 12 12 11 12 13 13 13 11 11 11 11 10 10 12 12 13 14 14 14 14 15 15 14 13 13 12 13 13 12 12 11 11 11 11 11 11 10 9
3 4 8 11 9 6 2 3 4 2 1 5 8 4 1 7 10 12 12 13 15 15 15 16 14 14 15 14 14 15 15 15 15 15 15 15 16 17 18 19 19 18 18 18 18 18 19 18 17 18 18 17 16 15 17 18 16 15 15 14 14 14 14 14 13 12 11 10 9 9 9 9 11 12 11 12 13 13 14 13 14 13 13 13 13 12 13 12 12 12 11 10 10 10 9 10 11
2 7 9 11 10 6 1 3 4 3 2 4 8 5 3 3 8 12 14 14 15 16 16 16 15 16 16 16 16 16 16 16 15 16 16 16 17 18 19 20 20 19 19 19 18 18 19 18 17 18 18 17 17 16 17 20 19 17 16 15 15 16 16 15 12 12 12 12 11 10 11 11 11 12 12 12 12 12 13 13 12 13 12 13 13 13 13 13 13 12 10 9 10 10 11 12 12
3 8 9 8 8 6 1 4 4 1 3 3 6 6 5 2 6 9 12 14 14 17 18 17 18 18 18 17 18 18 17 17 16 16 17 17 18 20 21 20 20 20 20 20 19 19 18 18 17 18 18 18 17 18 18 20 21 19 17 16 16 17 17 15 13 12 11 12 13 13 13 13 13 12 13 16 16 13 13 13 12 13 13 13 13 13 14 13 13 13 11 11 12 12 13 13 13
4 6 8 6 5 5 3 5 3 2 4 2 4 6 5 2 7 7 9 11 13 15 15 16 18 18 18 18 18 18 17 16 16 16 17 17 20 22 21 21 20 21 21 20 20 19 18 18 18 19 19 18 17 19 19 19 20 19 17 18 18 17 17 15 14 13 12 11 13 14 15 15 15 14 14 17 19 17 16 14 13 13 14 13 13 14 14 14 14 14 14 14 14 14 13 13 13
7 6 7 7 5 4 3 3 3 4 4 2 3 4 5 2 5 6 6 8 10 11 13 16 18 19 19 18 17 18 16 15 16 16 17 19 22 23 22 22 22 22 22 21 20 20 19 18 17 19 20 18 17 19 20 19 18 18 19 20 20 20 19 16 15 15 14 13 14 16 16 15 15 14 14 15 17 17 16 15 15 14 14 14 14 14 15 15 14 14 14 14 15 15 14 14 14
6 5 4 6 4 2 3 3 3 4 2 3 2 2 5 4 3 5 5 6 7 8 12 17 19 20 19 17 17 17 16 16 16 16 16 18 19 21 23 23 23 23 22 22 21 21 20 19 17 18 18 17 17 18 20 20 19 19 20 20 22 24 22 18 17 17 16 15 16 16 15 15 15 14 14 14 14 15 15 15 15 15 15 15 14 14 15 14 14 14 14 13 14 15 15 15 15
6 5 3 4 3 2 3 3 3 2 3 3 1 2 5 5 1 1 4 6 6 6 8 14 18 19 19 18 17 16 16 16 16 15 15 16 16 17 21 23 23 23 23 22 22 21 20 19 18 17 17 17 18 18 18 20 20 20 21 21 23 23 21 20 20 19 18 17 16 15 14 14 15 15 15 15 15 14 14 14 15 15 15 15 15 15 15 15 15 15 15 14 15 15 16 16 16
7 5 2 3 3 3 3 2 1 1 3 3 1 2 4 4 3 3 3 4 5 6 7 10 15 18 18 18 18 16 17 16 16 15 15 15 15 16 20 22 23 23 23 23 22 21 19 18 17 17 17 17 18 19 18 18 20 21 21 21 21 20 19 20 20 21 20 17 16 16 16 15 15 15 15 15 14 14 14 14 14 15 15 16 16 16 16 17 17 16 16 16 17 17 17 17 17
5 3 1 3 3 4 3 1 2 3 2 1 1 2 3 1 4 5 5 5 4 6 8 8 11 16 17 17 18 17 17 16 15 15 16 16 16 18 20 21 22 22 22 23 22 21 20 17 16 17 17 16 17 20 20 19 20 21 21 21 21 20 18 18 18 19 19 18 18 17 16 16 16 15 15 14 13 14 14 14 15 15 16 16 16 16 17 17 17 17 17 17 17 18 18 18 18
4 3 3 3 3 4 5 5 4 5 5 2 1 2 2 2 2 3 5 6 5 7 10 9 10 14 16 16 17 17 16 16 16 15 16 16 17 19 20 21 22 22 21 22 22 21 21 18 16 16 17 17 17 19 21 22 21 19 19 20 21 19 19 18 17 18 19 19 18 17 16 16 15 15 15 14 13 13 14 15 15 16 16 16 16 17 17 17 18 18 18 18 18 18 18 19 18
3 5 5 2 2 5 7 4 3 4 4 2 2 2 1 2 3 6 6 7 8 9 12 12 11 13 15 15 16 17 16 16 16 15 15 16 17 18 20 20 21 22 22 22 22 21 20 19 18 17 17 17 16 17 19 20 20 19 19 20 20 20 20 20 19 19 18 17 16 17 17 17 16 16 14 14 13 13 14 14 15 16 16 16 17 17 17 18 19 19 19 19 20 19 19 19 19
3 3 3 4 3 4 5 2 2 4 3 3 3 2 0 2 3 5 6 8 10 11 12 13 12 13 14 14 14 16 16 16 16 15 15 15 16 17 20 21 21 22 22 21 22 21 20 19 19 18 17 17 18 20 20 18 18 18 19 20 20 20 21 21 20 19 17 15 15 15 15 15 16 15 14 13 13 13 13 13 14 15 15 16 17 17 18 19 19 20 20 20 20 20 19 19 19
7 3 2 2 3 3 2 3 3 3 3 2 3 1 1 2 2 2 3 6 10 11 12 13 14 14 14 14 15 16 16 15 14 15 14 14 15 17 19 20 21 22 21 21 21 21 21 19 18 18 18 17 19 23 22 18 16 16 17 18 19 20 19 19 18 17 16 16 16 15 14 14 15 14 14 14 13 14 14 13 13 14 14 15 16 16 17 18 18 19 20 20 20 20 20 21 21
9 6 4 4 2 2 3 3 2 1 3 2 2 2 3 3 3 4 2 2 8 11 11 12 14 15 14 13 14 14 14 13 13 14 14 14 15 18 20 20 20 21 20 20 20 20 21 20 17 17 17 16 18 21 22 21 19 18 17 17 17 17 17 17 17 17 16 16 16 15 14 14 14 13 13 13 13 14 14 14 14 14 14 15 15 16 16 16 18 19 19 19 20 20 20 21 21
10 8 7 6 3 1 1 3 4 4 4 3 1 2 3 6 6 6 5 2 5 10 12 12 12 14 14 13 13 13 13 13 13 13 13 14 15 17 20 20 19 20 19 19 19 18 19 18 16 17 17 16 16 19 22 23 23 21 19 17 16 14 14 15 16 17 16 15 14 14 13 12 12 11 11 12 13 13 14 13 13 13 14 15 14 14 15 16 17 16 14 17 20 22 21 21 19
7 8 8 8 5 4 4 5 6 6 5 3 2 3 2 7 5 5 5 5 2 6 10 10 11 13 13 12 13 13 12 13 13 13 13 13 13 15 18 18 18 19 18 18 18 16 16 15 14 15 16 17 17 18 22 24 24 22 20 18 14 12 11 13 14 13 13 13 12 11 11 10 11 11 11 11 12 13 11 9 10 12 14 14 14 13 13 14 14 12 14 20 23 24 24 23 20
Wind_Direction
155 160 168 184 199 213 212 201 216 197 230 249 221 173 149 188 118 188 185 144 165 107 90 100 170 194 180 299 259 265 145 250 28 71 89 78 129 146 154 151 149 150 149 149 149 153 155 157 157 156 152 150 149 147 148 150 148 143 142 142 142 140 140 143 145 146 144 145 145 146 146 145 145 146 149 150 150 150 150 151 154 156 160 162 166 169 170 173 176 180 185 190 200 212 221 227 226
160 167 174 185 205 222 185 181 246 191 212 241 208 148 124 148 175 203 171 91 42 83 111 122 183 210 237 314 269 233 166 61 52 78 80 103 131 144 151 150 150 150 149 148 148 150 153 158 158 156 152 150 149 152 158 157 150 145 145 143 142 142 142 145 148 148 146 148 145 145 144 142 143 146 150 151 151 152 152 154 156 158 160 163 167 169 170 173 173 177 180 182 188 197 207 217 221
166 169 174 179 201 239 162 193 251 211 225 238 157 113 131 167 179 174 106 62 21 86 132 142 171 203 215 210 209 211 149 98 99 93 99 127 134 146 153 152 151 149 148 147 149 150 151 157 158 154 151 150 153 160 160 149 145 144 144 142 143 144 145 147 148 149 148 148 145 144 142 141 143 148 152 152 152 153 155 156 156 159 160 164 168 169 171 173 173 175 176 178 183 190 202 213 218
165 167 177 182 188 233 211 207 253 253 240 248 100 105 143 168 147 136 144 169 166 162 161 168 166 182 224 207 202 205 123 119 123 98 119 143 143 148 153 152 151 147 148 147 149 150 152 159 157 154 153 154 159 160 150 144 145 144 143 142 145 147 148 148 147 148 147 146 144 143 143 143 145 149 151 151 152 153 156 155 157 160 160 163 167 170 171 172 172 171 172 175 183 192 204 216 221
158 159 175 188 196 216 222 226 250 244 255 330 132 131 130 124 121 126 135 148 162 176 175 188 169 145 208 263 262 237 97 117 118 109 122 136 143 147 152 151 150 147 147 148 149 148 151 159 157 156 158 159 160 153 146 145 146 144 144 145 148 149 147 148 148 146 146 146 145 145 144 145 145 146 148 149 149 151 154 153 158 160 160 164 166 169 168 168 170 168 169 176 188 198 207 218 224
156 150 163 204 242 262 241 229 231 238 256 326 168 110 111 120 122 127 126 130 148 168 171 190 188 167 178 170 223 23 50 109 126 126 120 134 145 147 150 151 151 147 146 148 149 148 151 158 158 159 161 158 155 151 149 148 147 146 147 150 151 149 148 149 149 147 148 148 147 146 145 146 145 145 147 147 147 150 154 153 158 159 161 164 166 166 165 167 169 170 174 182 192 200 207 212 215
160 154 173 212 238 241 241 236 237 250 207 251 294 88 122 138 134 154 155 161 148 145 176 191 200 191 162 157 169 79 55 38 100 120 125 139 145 147 150 151 150 146 147 148 147 148 151 157 160 161 161 155 154 152 152 151 149 150 151 152 151 151 151 150 151 149 149 149 148 148 147 148 145 146 147 145 146 150 151 151 153 155 158 160 163 165 167 172 173 178 183 190 195 200 202 204 208
173 176 188 211 224 216 240 245 239 252 155 135 278 294 146 166 175 222 231 220 150 148 181 186 207 204 135 174 167 105 87 59 80 108 128 142 146 148 152 152 148 146 147 148 146 147 151 158 161 161 158 154 155 155 155 154 153 155 154 153 153 153 152 151 151 151 151 150 149 151 148 149 148 147 146 145 147 147 147 149 151 153 156 157 161 166 169 176 178 183 193 199 202 203 203 208 214
186 206 198 217 231 225 241 246 239 242 232 213 240 239 224 216 212 238 250 221 160 170 186 180 214 211 144 177 138 113 107 83 102 117 136 145 147 150 153 153 149 147 146 148 147 145 150 157 161 159 155 156 156 156 156 155 156 156 153 154 155 152 150 151 151 152 152 152 151 151 151 151 150 148 146 146 146 145 147 148 152 153 156 158 159 168 172 174 181 189 201 213 217 220 221 226 233
191 218 226 242 236 236 238 238 237 220 234 248 247 236 229 224 223 235 243 234 188 171 171 174 222 211 149 158 123 116 102 99 124 130 142 146 147 151 152 153 149 147 146 147 147 145 148 154 159 156 155 158 158 156 157 158 157 155 155 157 156 150 151 152 152 153 153 153 152 153 155 154 151 149 148 150 149 149 153 152 154 155 157 159 159 170 180 180 190 199 207 220 231 235 237 243 251
211 206 227 254 238 242 241 238 238 216 230 244 247 239 229 224 228 232 232 241 206 164 162 170 209 200 149 142 115 105 105 120 135 135 145 147 149 151 151 152 149 148 147 146 146 146 148 153 157 155 156 159 159 158 159 160 157 159 158 157 154 150 153 153 154 155 156 155 154 155 156 156 151 149 150 151 155 154 153 151 153 158 158 161 166 174 187 197 207 214 219 227 243 256 263 272 273
238 209 219 243 245 254 263 271 256 263 260 248 251 225 213 227 226 232 225 226 203 173 174 179 197 192 164 141 118 118 128 130 135 140 145 148 150 151 150 150 150 150 149 147 146 148 148 152 157 157 158 160 161 160 160 161 160 161 157 157 156 154 155 155 159 159 158 157 154 155 154 153 149 150 155 154 160 165 158 157 161 166 166 170 188 195 202 213 225 230 237 242 257 274 288 283 276
245 245 239 247 267 270 276 277 262 266 256 253 269 128 149 232 223 230 228 223 203 186 183 189 206 195 166 121 122 133 133 129 136 143 145 148 150 148 150 149 151 151 150 149 148 150 149 151 157 160 162 163 163 162 162 163 163 161 158 161 158 157 159 158 162 160 157 153 150 157 155 149 147 152 177 185 188 186 171 170 183 187 189 192 208 228 228 230 241 244 246 253 269 284 285 277 277
249 271 261 261 276 270 280 274 266 269 261 290 88 112 196 232 230 230 227 222 195 181 180 184 208 197 157 126 144 149 137 137 140 144 146 148 146 145 149 150 152 152 151 152 151 151 151 153 158 162 167 167 164 164 164 164 164 162 161 163 161 160 161 163 164 159 154 148 149 160 163 157 158 172 195 207 203 192 184 178 196 203 203 211 219 236 245 248 256 258 258 271 281 278 272 276 284
284 300 288 273 284 283 293 286 290 282 288 13 94 130 236 224 237 235 228 231 172 134 154 172 217 210 173 187 163 146 142 143 143 144 147 145 144 146 148 150 153 153 154 155 153 153 154 156 159 164 169 168 166 165 166 166 165 164 166 166 165 165 163 167 168 160 150 145 154 164 175 176 178 196 195 198 188 163 175 179 212 220 214 231 239 247 257 263 271 273 274 278 278 276 280 289 294
353 327 307 272 287 285 297 292 294 282 303 359 68 160 245 209 207 231 197 182 125 138 168 174 209 241 191 205 127 132 140 142 144 144 144 143 145 146 148 152 153 154 157 157 157 157 158 159 161 167 170 169 166 164 165 167 167 168 171 170 167 167 168 172 170 161 151 155 170 174 189 192 194 208 185 187 210 128 173 196 214 222 214 231 250 261 271 275 277 277 275 276 277 282 288 293 294
141 233 237 246 271 271 305 288 295 313 322 315 255 238 249 215 179 200 115 129 140 158 179 169 176 150 164 134 115 131 139 141 145 144 144 145 148 148 149 152 154 156 160 161 161 161 162 162 163 168 170 169 165 163 163 165 170 173 174 173 169 172 175 174 171 163 159 166 180 201 205 197 196 206 184 187 216 206 225 231 216 212 216 230 253 263 271 274 274 273 272 276 279 281 287 293 296
190 216 235 250 273 298 356 320 310 318 309 299 276 253 252 238 170 165 150 161 161 157 164 153 149 121 111 114 122 135 140 143 147 148 148 150 152 151 151 154 159 161 162 164 165 166 166 166 167 169 170 167 164 162 162 165 171 175 176 176 175 178 178 175 174 170 173 178 181 195 201 200 197 197 188 193 216 211 236 251 228 218 228 238 255 257 262 264 268 271 273 276 278 282 286 289 293
237 264 264 275 328 336 344 313 301 304 302 302 289 260 250 244 164 169 174 165 163 156 153 151 142 127 121 123 133 140 143 147 150 153 153 154 156 153 154 158 163 164 166 167 168 171 168 168 170 171 171 167 166 163 163 168 170 173 177 181 181 183 179 175 179 179 187 191 185 191 195 205 198 192 198 199 207 208 228 246 228 222 228 240 255 257 266 272 276 277 282 290 288 287 284 277 275
240 255 273 334 9 328 319 309 300 306 301 286 281 263 241 223 154 173 179 162 165 163 154 157 154 142 135 135 141 145 149 151 154 157 156 157 158 157 159 163 167 167 169 170 170 173 170 169 172 173 173 169 168 166 167 171 170 173 178 181 182 182 181 178 183 185 190 190 188 199 204 206 200 199 213 210 210 214 235 255 245 235 236 263 276 271 276 289 299 298 307 318 310 285 269 261 264
215 245 295 347 349 313 321 329 307 305 293 271 277 266 222 171 148 175 171 166 170 166 162 165 162 151 143 143 147 149 150 153 157 160 160 160 161 161 164 166 167 167 169 170 171 174 171 170 172 172 173 172 172 171 173 175 172 175 180 181 181 180 182 182 185 187 188 188 195 208 207 201 200 199 205 210 213 215 221 233 243 235 228 253 265 255 255 273 290 290 297 308 299 270 259 258 260
246 241 280 322 320 312 345 337 315 305 283 260 259 248 192 140 155 187 174 173 169 161 171 169 160 153 148 147 151 152 151 155 159 163 165 164 165 165 164 167 166 165 169 171 172 174 172 171 173 172 173 175 176 175 175 177 179 181 182 181 182 184 187 189 190 188 187 191 200 208 204 197 199 200 201 204 210 213 214 216 218 218 216 223 225 226 231 238 254 261 264 267 263 257 254 253 252
257 254 279 312 311 315 339 331 310 299 285 257 238 220 154 143 161 193 178 166 154 158 169 159 154 154 149 148 152 154 154 159 164 167 170 168 168 167 165 167 166 166 170 172 172 171 172 173 173 173 174 176 177 180 178 180 187 188 184 184 188 189 191 195 193 190 189 192 200 204 201 199 197 198 199 203 209 209 209 212 208 209 216 214 206 211 217 220 235 249 256 262 264 262 259 252 246
244 287 307 317 322 312 321 327 314 325 332 314 224 190 160 154 160 185 167 145 150 157 156 146 149 154 150 151 152 152 157 164 167 168 172 173 172 169 167 168 167 166 170 173 172 171 174 173 174 175 174 176 178 183 183 183 190 192 190 190 193 192 194 200 197 194 192 194 201 202 202 203 199 197 196 200 203 202 201 201 200 202 208 208 204 213 220 222 236 245 254 268 273 277 280 273 260
218 285 320 291 304 300 298 333 4 19 24 48 118 150 169 154 149 157 139 138 151 149 145 144 148 154 154 155 150 153 164 166 166 168 173 176 174 172 170 170 170 170 172 175 174 174 175 173 175 177 175 177 179 182 186 186 190 193 194 194 195 196 200 204 202 202 198 199 203 204 206 207 203 198 197 196 193 194 194 195 201 201 203 210 215 224 228 236 256 262 270 276 281 289 288 290 293
219 295 319 283 287 283 274 38 48 43 47 44 92 115 139 134 134 140 140 148 156 154 151 149 152 155 157 156 151 159 168 166 167 170 173 175 174 174 175 175 175 175 175 176 176 176 174 174 178 179 178 179 179 183 187 189 192 196 198 199 200 200 205 208 208 210 205 203 203 204 208 209 210 204 199 197 191 193 196 202 208 206 208 217 222 232 241 258 279 283 289 291 298 301 295 301 301
325 295 298 274 279 136 237 88 97 101 47 44 134 97 99 134 153 144 158 163 163 166 158 154 156 156 157 153 154 165 168 167 167 167 170 171 173 177 178 179 180 178 177 177 178 176 174 177 179 180 181 181 183 185 187 191 195 198 201 203 205 205 209 210 212 216 211 207 203 207 213 216 219 215 204 199 196 198 201 206 209 211 218 221 231 249 256 268 286 292 298 303 306 303 297 298 296
310 292 270 231 211 162 184 140 123 137 44 54 183 129 116 165 177 149 162 163 162 165 157 157 158 155 157 153 155 166 166 167 168 168 171 169 172 179 179 181 182 179 180 180 178 176 177 179 179 181 183 184 188 189 188 193 197 201 204 205 208 208 210 214 218 218 216 214 209 212 219 221 222 222 218 211 207 210 210 214 214 217 227 232 243 260 271 280 288 291 298 302 299 297 295 291 289
289 277 267 200 176 166 156 146 118 122 93 123 186 132 133 149 134 144 159 157 158 164 157 158 158 155 156 154 156 163 165 168 171 174 174 172 174 180 181 182 182 180 182 181 178 178 178 179 180 182 185 188 192 194 193 196 200 202 204 207 208 208 210 217 222 221 219 218 216 219 223 226 226 223 224 223 223 224 223 229 230 230 239 249 260 271 280 286 287 291 295 293 291 292 290 289 290
275 270 282 211 157 122 130 147 129 116 120 194 211 124 127 105 120 146 157 155 161 163 160 161 158 155 155 157 160 163 168 171 175 177 175 175 177 181 183 181 182 181 180 180 180 180 179 179 182 184 188 191 195 199 198 199 201 202 204 207 209 209 214 219 224 225 224 223 223 228 229 230 230 225 224 227 230 234 233 236 239 242 248 257 269 277 280 283 286 291 293 291 291 290 290 294 296
264 267 267 265 59 75 120 148 140 125 93 272 280 103 118 113 130 152 159 162 168 163 165 166 158 157 159 163 167 166 173 177 175 173 173 176 176 180 182 179 182 182 178 181 182 182 182 181 183 187 190 193 196 199 202 203 203 204 205 207 210 212 217 224 227 228 227 226 225 228 229 228 229 226 225 227 231 238 239 240 242 247 258 269 274 277 281 285 286 287 289 291 292 292 296 297 294
252 286 358 358 18 77 117 132 137 120 86 287 303 67 114 127 149 164 167 171 177 171 171 170 164 164 165 168 173 172 176 179 175 172 171 174 174 176 180 178 181 184 181 182 183 184 186 185 187 190 191 194 197 199 202 206 207 209 210 211 215 217 223 229 231 231 230 227 223 222 225 225 225 225 225 229 234 241 247 250 254 259 272 279 278 281 284 285 284 282 282 288 293 297 300 297 293
193 312 16 20 10 69 98 103 126 111 119 212 303 8 130 152 168 173 177 183 186 181 177 177 172 169 170 171 176 176 176 178 178 176 172 174 176 176 178 178 180 186 185 184 183 186 189 188 191 196 194 195 197 199 202 206 211 213 216 219 221 224 228 231 230 232 230 228 224 219 218 219 221 223 226 233 238 245 249 253 259 264 272 277 280 280 277 275 276 276 276 278 284 291 296 294 291
41 343 17 22 2 37 91 137 146 132 159 195 207 238 224 146 175 186 191 195 195 192 184 183 178 173 173 175 177 178 177 179 181 183 180 177 179 179 179 179 180 186 188 188 186 187 190 189 193 199 198 196 197 199 201 206 212 215 220 223 224 226 228 230 229 229 227 225 223 217 214 214 216 220 226 231 238 246 248 250 256 261 266 270 271 271 268 266 265 268 271 272 274 284 296 297 291
346 343 354 358 356 21 67 113 148 165 192 209 196 221 223 167 177 190 197 204 203 200 189 185 183 176 176 179 180 178 178 183 184 187 187 183 181 183 183 181 181 185 188 191 189 189 193 192 193 197 198 197 196 198 200 206 212 215 220 221 222 225 227 230 229 229 229 226 223 219 216 217 219 221 226 233 240 246 248 249 254 258 263 266 268 269 270 267 262 260 264 266 268 275 285 291 289
324 323 320 336 351 17 57 105 155 174 187 208 209 216 214 186 182 188 194 203 207 202 189 185 186 181 181 184 183 180 183 186 186 187 189 188 187 185 185 185 185 187 188 191 191 192 194 194 193 194 197 198 194 195 199 205 212 213 216 217 218 223 225 228 230 230 230 229 227 224 222 224 225 226 232 239 243 247 251 252 254 258 262 267 271 275 279 281 275 267 262 264 268 271 273 275 280
310 305 311 344 357 19 52 114 158 180 195 210 213 219 218 197 187 188 188 194 201 202 191 185 189 186 185 188 184 183 188 189 186 186 189 191 192 187 187 190 190 190 192 192 193 194 195 196 195 194 196 198 195 196 199 204 209 209 211 214 216 219 222 226 230 230 231 231 229 227 227 228 228 231 237 241 243 248 252 254 256 259 263 267 271 277 286 291 287 276 265 259 262 268 273 276 283
300 300 309 347 16 40 52 112 154 178 207 219 211 222 228 209 195 190 190 197 198 197 194 188 190 188 186 191 188 185 190 192 188 186 189 193 194 189 188 194 195 194 195 196 198 197 197 198 198 198 197 199 201 201 201 204 207 208 209 213 219 221 220 225 231 232 232 233 230 229 231 230 231 234 240 245 249 251 252 253 257 260 264 267 271 276 284 286 281 274 265 257 258 263 267 277 286
288 294 300 344 20 53 106 127 152 172 202 229 205 218 228 209 201 198 194 201 204 199 196 190 190 189 188 191 190 190 192 192 191 188 190 193 194 192 191 196 200 200 199 200 201 200 200 202 201 201 200 200 204 204 204 207 207 209 210 212 220 225 225 230 237 237 236 236 232 231 232 233 236 238 242 249 252 253 252 252 255 261 266 266 270 278 286 287 280 269 260 256 261 265 265 273 277
276 299 317 8 14 7 76 137 167 177 195 227 205 220 238 204 197 202 197 199 207 204 201 195 191 192 192 192 193 194 194 191 192 192 192 192 192 194 196 198 200 203 204 202 202 202 203 205 203 202 203 203 206 206 206 208 207 206 211 216 221 231 239 243 247 244 240 240 238 237 234 234 238 240 241 244 247 250 250 253 258 264 267 266 268 273 277 278 274 264 257 254 258 264 269 273 269
283 321 339 1 3 354 23 130 172 185 204 218 205 217 244 212 202 204 194 192 202 203 203 200 195 194 193 194 195 196 196 193 194 195 194 193 192 193 197 200 201 203 206 204 203 204 204 205 204 203 204 206 208 205 204 207 204 200 208 219 226 235 243 245 244 242 237 236 239 240 238 235 239 240 239 239 243 247 248 254 262 265 265 263 264 268 268 267 266 264 261 255 251 257 266 272 265
275 38 2 348 341 350 43 148 182 196 205 204 212 225 191 197 208 213 191 184 195 198 203 205 197 194 194 195 196 197 198 195 197 198 196 195 193 192 196 201 203 203 205 206 205 205 205 205 204 203 204 207 209 205 205 207 203 201 206 214 222 229 236 237 236 237 233 230 235 238 237 236 238 240 241 241 243 245 247 252 260 262 261 258 257 263 266 266 265 266 263 253 248 252 257 264 264
255 52 358 337 331 343 69 189 227 268 53 171 213 253 167 176 194 206 194 185 193 194 201 206 198 195 196 197 196 197 198 196 197 199 198 197 194 194 197 201 204 204 204 205 206 207 207 206 204 203 203 206 209 204 203 209 207 207 213 219 226 230 235 237 235 237 236 234 234 234 233 234 237 241 243 244 245 247 249 251 254 257 257 257 256 258 261 263 266 268 263 250 248 252 248 250 259
308 31 346 334 338 345 79 235 262 306 0 178 208 246 271 208 174 182 188 190 195 195 199 203 200 198 198 198 196 196 199 197 196 198 199 199 195 196 200 201 202 204 204 204 207 209 208 207 206 205 203 205 208 203 202 211 214 212 216 223 231 235 239 243 241 239 239 239 239 237 238 240 240 242 244 247 248 248 252 253 251 252 255 257 257 257 258 261 265 268 262 248 246 248 243 244 252
343 14 335 335 339 335 329 264 274 309 281 219 189 209 253 225 144 161 183 192 200 199 198 199 199 199 198 199 198 196 198 198 198 198 198 200 198 198 200 201 201 203 206 206 207 210 210 208 207 205 205 204 206 203 202 212 218 217 217 223 230 236 242 247 246 245 241 240 241 243 247 250 248 244 245 255 259 254 254 256 251 250 253 254 256 258 258 259 262 262 255 245 242 243 242 244 247
348 344 311 309 306 302 296 274 289 284 261 274 148 193 252 204 144 163 186 197 206 201 197 199 199 198 199 199 198 196 196 197 199 199 198 200 200 200 201 202 202 203 208 209 208 211 211 210 207 206 207 205 205 204 205 211 216 216 219 223 228 233 239 244 246 247 243 239 243 248 250 251 253 249 245 256 262 259 255 254 250 248 250 252 253 255 256 257 257 255 250 246 245 244 245 245 245
313 304 292 294 277 267 280 273 292 264 223 60 79 190 252 263 141 157 180 199 210 199 192 195 196 195 197 198 198 197 195 195 199 199 199 199 201 202 203 203 204 205 209 210 210 212 213 213 209 207 209 208 205 205 209 213 213 216 222 224 229 233 236 238 241 244 242 239 244 251 253 253 255 253 245 245 251 253 251 248 247 249 251 251 251 251 253 254 253 252 249 246 244 243 245 247 247
278 275 281 291 270 236 248 212 228 257 162 76 37 200 233 250 138 141 164 181 202 198 189 190 191 191 192 195 196 196 195 195 197 199 200 199 200 202 204 205 206 207 209 211 211 212 214 216 213 208 208 207 206 207 211 214 214 219 225 226 231 236 235 234 238 242 242 242 247 253 254 252 253 253 248 244 242 242 240 237 241 248 250 248 248 250 251 251 252 254 253 250 246 241 240 243 245
239 247 260 279 272 247 244 207 218 259 91 76 333 231 232 241 210 162 177 180 193 196 187 186 189 189 188 191 194 193 194 195 195 198 199 198 198 201 204 205 206 208 210 211 213 213 213 216 216 210 205 205 209 209 211 214 217 221 226 227 231 236 234 233 237 242 245 246 250 253 252 249 250 251 251 250 247 245 241 235 236 244 247 246 245 247 248 248 248 250 252 251 248 243 238 237 238
218 232 232 241 275 279 245 202 234 226 106 81 27 245 236 208 139 106 116 149 176 187 188 181 183 186 184 187 190 191 194 194 194 196 198 197 197 200 203 205 206 208 210 211 213 214 215 216 214 210 207 207 213 216 213 214 219 224 227 228 232 234 234 234 236 242 247 247 249 253 254 254 254 255 256 257 255 254 253 245 241 246 249 246 242 242 245 246 245 245 247 247 245 244 240 235 236
218 235 245 234 273 285 273 294 347 338 344 57 141 232 272 91 111 112 116 129 155 180 184 174 176 181 180 183 188 191 193 194 194 195 197 197 196 198 202 204 206 207 209 211 213 214 217 218 210 207 208 207 214 223 221 218 223 228 228 230 233 234 236 237 238 242 246 246 248 252 255 257 258 259 261 262 259 256 257 254 250 252 254 250 244 244 247 247 243 241 243 243 242 241 240 237 237
218 210 229 236 234 242 278 309 333 325 311 303 196 232 305 14 108 132 146 160 164 171 172 169 172 174 175 180 186 190 192 194 194 194 195 197 195 197 200 202 205 207 209 213 215 214 215 216 209 207 211 211 214 224 228 227 229 229 228 231 233 233 235 238 239 240 242 245 247 250 253 255 258 259 259 259 258 254 255 255 253 255 257 254 249 247 249 248 243 239 238 239 239 238 238 238 238
189 208 224 183 175 248 269 281 284 285 280 287 285 239 182 175 152 130 138 151 150 158 166 168 169 169 174 180 184 188 192 192 194 194 193 195 195 195 199 203 205 208 210 213 217 216 213 214 212 209 214 216 215 220 228 230 229 229 230 232 232 231 233 237 239 239 241 244 246 246 248 250 251 254 255 256 256 252 252 252 252 256 258 255 253 252 251 247 242 240 238 237 238 239 238 238 240
208 202 203 138 157 252 274 280 288 279 250 221 250 280 73 176 154 141 155 151 146 156 164 165 165 168 176 182 183 187 190 191 193 193 192 193 196 196 199 204 206 208 212 213 215 217 215 213 213 213 215 217 219 225 230 229 227 230 232 233 233 233 234 237 240 241 241 244 245 244 245 246 247 250 251 253 255 251 245 241 244 251 253 253 255 254 253 250 245 243 242 242 245 245 243 242 241
240 245 246 202 203 202 199 254 276 274 263 200 175 215 236 180 127 122 162 151 147 159 166 167 170 174 178 182 183 184 187 189 190 192 192 192 196 198 199 203 206 207 211 212 212 214 216 216 212 213 217 219 224 231 232 228 227 231 235 236 235 234 236 237 237 238 240 243 244 244 245 245 245 247 246 246 250 250 243 236 238 244 248 250 252 254 255 255 252 249 248 249 252 251 248 248 246
235 261 248 236 255 178 174 254 259 241 285 269 157 178 161 118 33 7 3 134 148 161 176 176 174 177 179 179 179 179 181 185 187 190 192 192 195 198 199 202 205 206 208 211 211 211 215 215 207 208 216 217 222 229 231 232 232 232 236 238 236 234 233 233 234 236 238 242 246 247 248 248 248 247 245 244 250 251 244 237 237 243 248 249 249 251 253 254 256 255 254 257 261 258 253 251 251
205 229 226 213 222 204 194 260 244 230 261 285 300 227 122 77 25 356 346 326 161 171 183 182 178 179 178 176 173 171 174 179 184 187 190 190 193 196 198 200 204 207 207 210 213 213 213 211 201 202 212 213 215 223 230 235 237 236 235 237 239 234 226 228 234 237 241 247 254 256 257 256 255 253 252 252 253 250 246 243 246 256 262 259 253 248 245 248 253 257 267 281 285 280 269 258 253
210 213 221 218 212 217 221 226 232 240 251 262 274 258 91 64 33 13 352 326 269 193 185 180 184 179 171 168 163 161 169 175 180 185 187 187 189 193 195 194 199 204 205 207 210 211 212 208 198 197 206 211 214 220 229 235 238 238 236 234 236 231 222 225 231 234 242 250 256 259 256 254 254 254 255 256 254 254 254 251 255 265 270 269 264 257 251 252 251 251 267 280 285 285 280 272 262
Height
784 786 785 786 784 786 784 784 802 798 794 801 782 781 788 779 781 784 785 784 784 782 778 782 780 778 781 784 782 778 780 781 783 795 801 788 781 785 786 787 789 792 796 799 802 804 807 809 811 812 814 816 817 819 820 821 823 824 825 826 827 828 829 830 831 832 833 834 835 835 836 837 838 839 839 840 840 841 841 842 842 843 844 844 845 845 846 846 847 847 847 848 848 848 848 848 848
785 786 785 787 784 788 785 784 803 796 794 803 780 776 785 779 783 785 783 783 784 780 778 780 780 779 779 778 776 778 779 772 773 780 783 780 782 785 786 789 790 793 796 799 802 805 808 809 811 813 815 816 818 819 820 822 823 824 825 826 828 829 830 831 831 832 833 834 835 836 837 837 838 839 839 840 841 841 842 842 843 844 844 845 845 846 846 847 847 847 847 848 848 848 848 848 848
786 786 786 787 785 785 784 789 798 793 798 803 789 777 778 782 783 784 783 782 781 777 779 780 783 782 781 783 779 783 784 771 769 774 778 781 782 784 787 790 791 794 796 799 802 805 808 810 812 813 815 817 818 819 821 822 823 824 825 827 828 829 830 831 832 833 834 835 835 837 837 838 839 839 840 840 841 841 842 843 843 844 844 845 845 846 846 847 847 847 847 848 848 848 848 848 848
786 786 786 785 788 789 790 798 795 792 795 793 798 785 775 781 779 782 782 781 780 778 782 782 785 781 781 789 779 777 780 771 769 772 777 781 781 784 787 790 793 795 797 800 802 805 808 809 812 814 815 817 818 820 820 822 823 824 826 827 829 830 831 831 832 833 834 835 836 837 838 839 839 839 840 840 841 841 842 843 844 844 845 845 846 846 846 847 847 847 847 848 848 848 848 848 848
787 787 787 785 793 793 792 798 790 792 791 785 797 788 776 778 777 781 780 779 779 780 783 783 787 781 779 785 778 777 777 771 770 770 775 779 781 785 787 790 793 795 798 800 802 806 808 809 812 814 816 817 819 820 821 822 823 825 826 828 829 830 832 832 833 833 834 835 836 837 838 839 839 840 840 840 841 841 842 843 844 845 845 845 846 846 846 847 847 847 847 847 847 848 848 848 848
786 787 786 786 790 789 792 798 792 789 781 776 787 784 777 776 776 780 779 779 777 778 780 782 785 782 782 778 773 775 773 773 773 771 774 779 782 785 788 791 793 796 798 801 803 806 807 810 812 814 816 818 819 820 821 822 824 825 827 828 829 830 832 833 834 834 835 836 837 838 838 839 839 840 840 841 841 841 842 843 844 844 845 845 845 846 846 846 846 847 847 847 847 847 848 848 848
785 788 788 791 791 788 795 795 789 785 773 770 778 778 776 774 775 778 780 782 780 779 779 782 780 782 785 775 773 773 771 774 771 773 776 779 783 785 788 791 794 797 799 802 804 806 808 810 812 815 816 818 819 821 822 823 824 825 827 828 830 831 832 833 834 835 836 836 837 838 838 839 839 840 840 840 841 841 842 843 844 844 845 845 845 846 846 846 846 847 847 847 847 847 848 848 848
784 787 787 795 797 793 795 790 783 779 772 770 771 772 773 773 774 777 780 781 784 783 781 782 777 785 785 773 779 776 772 775 773 776 778 780 784 786 789 791 794 797 800 803 805 807 809 811 813 815 817 819 820 821 823 824 825 826 827 829 830 831 832 833 834 835 836 837 837 838 838 839 839 840 840 840 841 841 842 842 843 844 844 844 845 845 846 846 846 846 846 846 846 847 847 847 847
783 786 787 795 800 796 793 787 780 774 771 770 770 770 771 771 772 777 779 779 782 782 782 781 778 785 785 776 780 775 772 777 776 779 780 782 784 786 790 791 795 797 800 803 805 808 809 812 814 815 817 819 820 822 823 824 825 826 828 829 831 832 833 834 835 836 836 837 838 838 839 839 840 840 840 840 841 841 842 843 843 843 844 844 844 845 845 845 845 846 846 846 846 846 846 846 846
783 786 789 795 797 798 794 784 777 773 771 768 768 769 768 769 771 775 777 778 778 781 781 778 779 782 781 780 781 775 774 777 777 780 781 784 785 788 790 792 796 798 801 804 806 808 810 813 814 816 818 819 821 822 824 825 826 827 828 829 831 832 833 834 835 836 836 837 838 838 839 839 840 840 840 840 841 842 842 843 843 843 844 844 844 845 845 845 845 845 845 846 846 846 846 846 846
787 784 786 795 795 793 789 782 776 772 770 768 768 765 766 767 771 774 775 777 775 779 781 780 784 779 777 780 779 776 776 777 778 780 782 784 787 789 791 794 797 799 802 804 807 809 811 814 815 817 818 820 821 822 824 825 826 827 828 830 831 832 833 834 835 836 836 837 838 839 839 839 840 840 840 841 841 842 842 843 843 843 844 844 844 844 844 844 845 845 845 845 846 846 846 847 847
790 785 785 795 790 783 780 780 778 774 771 770 769 764 763 765 771 774 774 777 774 778 780 780 780 772 778 782 778 776 776 779 780 781 784 785 788 790 792 795 798 801 803 805 807 810 812 814 816 818 819 821 822 823 824 825 827 827 829 830 831 832 833 834 835 836 836 837 838 839 839 839 840 840 841 841 841 841 842 842 843 843 843 844 844 844 844 844 844 844 845 845 845 846 846 847 847
788 786 789 793 783 780 779 780 779 777 774 769 767 763 763 767 771 771 771 774 773 779 778 774 771 768 778 780 776 776 776 780 781 783 785 786 789 791 794 796 799 801 804 806 808 810 812 815 817 818 819 821 822 823 824 826 827 828 829 830 831 832 833 834 835 836 836 837 838 839 839 840 840 840 841 840 841 841 841 842 842 843 843 843 843 843 843 843 844 844 844 845 845 845 846 846 846
785 783 790 793 781 779 779 779 777 778 775 765 764 764 764 767 767 766 770 775 774 776 772 767 765 770 779 780 780 778 777 781 782 785 785 787 790 791 795 797 800 802 804 807 808 811 812 815 817 819 820 821 822 823 825 826 827 828 829 830 831 833 833 834 835 836 836 837 838 839 839 840 840 840 840 840 840 840 841 841 841 842 842 843 843 843 843 843 843 843 844 844 845 845 846 846 846
787 786 791 794 784 781 779 778 777 779 774 763 764 764 765 765 763 766 769 774 775 769 767 767 764 772 781 780 780 776 777 782 782 785 786 788 791 793 796 798 801 802 805 807 809 811 813 815 817 819 819 820 822 823 825 826 827 828 829 831 831 832 833 834 835 836 836 837 838 839 839 839 840 840 840 840 840 840 840 841 841 841 842 842 842 842 842 843 843 843 843 844 844 845 845 846 846
788 791 798 800 792 788 782 777 777 779 774 764 764 763 768 766 761 768 766 768 775 769 769 771 765 770 776 772 770 770 776 782 783 786 787 789 792 795 797 799 801 803 805 807 809 811 813 815 817 819 819 820 822 823 825 825 827 828 829 831 831 832 833 834 835 835 836 837 838 838 839 839 840 840 839 840 840 840 840 840 840 840 841 842 842 842 842 842 842 842 843 844 844 844 844 845 845
788 794 803 801 792 787 780 775 775 776 771 765 764 764 770 768 762 765 762 765 774 772 770 769 764 765 768 765 765 771 779 782 784 786 787 790 792 794 797 799 802 803 806 807 809 811 813 815 816 818 819 820 821 823 825 825 827 828 829 830 831 832 833 834 834 835 836 837 838 838 838 839 839 839 839 840 840 840 839 839 839 840 841 841 841 841 841 842 842 842 842 843 843 843 844 845 845
789 794 798 792 783 780 775 773 771 770 770 767 764 765 768 769 767 765 764 772 773 772 772 768 766 765 764 766 768 775 780 782 784 786 787 789 791 793 796 799 801 803 805 807 809 811 813 815 816 818 818 820 821 823 824 825 827 828 829 830 831 832 832 834 834 835 836 836 837 837 838 838 839 839 839 840 839 839 839 839 839 839 840 840 841 841 841 841 841 841 841 842 842 843 843 844 844
787 787 789 783 775 773 771 771 769 769 771 768 764 764 766 768 767 765 769 777 774 775 777 772 772 770 767 769 771 776 779 782 784 785 787 788 789 792 794 798 800 802 804 806 808 810 812 814 816 817 818 819 821 822 824 825 826 828 829 830 831 832 832 833 833 835 835 836 837 837 838 838 838 838 838 838 838 839 839 838 839 839 840 840 840 841 841 841 841 841 841 841 841 842 842 843 844
784 784 786 778 770 770 767 768 768 767 769 769 766 763 765 766 763 765 772 776 774 776 777 775 777 774 771 771 771 774 777 780 783 784 786 787 789 790 793 796 798 800 803 805 808 810 812 814 815 817 818 819 821 822 824 825 826 828 829 830 831 831 832 833 833 834 835 836 836 837 837 837 837 837 837 837 838 838 838 838 839 839 840 840 840 840 841 840 840 840 840 840 840 841 842 842 842
783 782 781 773 768 771 768 766 767 766 767 768 766 765 767 766 764 768 771 776 778 775 772 771 773 770 769 770 771 773 775 778 781 784 785 786 788 790 792 795 797 800 802 805 807 809 811 813 815 816 818 819 820 822 823 825 826 827 828 829 830 830 831 832 833 834 834 835 836 836 837 837 837 837 837 837 838 838 839 839 839 839 840 840 840 840 840 840 840 839 839 839 839 840 840 840 840
781 777 772 769 768 772 768 765 766 766 766 766 767 769 767 765 768 770 770 776 776 771 767 764 764 765 766 768 770 772 774 778 781 783 784 785 787 789 792 794 797 800 802 804 806 808 810 812 814 816 818 819 820 821 823 824 825 826 827 828 829 830 831 831 832 833 833 834 835 835 836 836 836 836 837 837 837 838 838 839 839 839 839 840 840 840 840 839 839 839 839 838 838 838 838 837 837
779 773 766 766 767 771 769 765 766 764 765 767 768 767 765 768 773 769 768 772 769 763 760 759 761 762 763 766 768 771 774 778 780 782 783 785 787 789 792 794 796 799 801 804 805 808 809 811 813 815 817 818 820 821 822 823 824 826 826 827 828 829 830 831 831 832 833 833 834 835 835 835 835 836 836 836 837 837 838 838 838 838 838 839 839 839 839 838 838 838 837 837 837 836 835 835 834
779 775 766 766 767 769 767 764 765 764 765 767 767 767 767 772 774 770 769 769 764 759 756 757 760 762 764 767 769 772 775 776 778 781 783 785 787 789 791 793 795 798 801 803 805 807 809 810 812 814 816 818 819 820 822 823 824 825 826 826 827 828 829 830 830 831 832 832 833 833 834 834 835 835 835 835 836 836 837 837 837 838 837 838 838 838 838 837 837 836 836 836 835 834 833 832 832
775 773 764 765 767 767 764 763 766 766 767 767 767 771 771 770 771 772 772 768 764 759 757 758 761 763 766 769 770 774 775 775 777 780 783 785 787 789 791 793 795 797 800 802 804 805 807 809 811 813 815 817 818 820 821 822 823 824 825 825 826 827 828 828 829 830 830 831 832 832 833 834 834 834 834 835 835 836 836 836 837 837 837 837 837 837 836 836 836 835 835 834 833 833 831 831 830
768 766 763 764 766 764 763 765 768 768 769 768 770 772 770 767 769 776 773 767 765 761 760 760 762 767 769 769 771 774 774 775 777 779 782 784 786 788 790 792 794 796 798 801 803 804 806 808 810 812 814 816 818 819 820 821 822 823 824 824 825 826 827 827 828 829 829 830 831 831 832 832 833 833 834 834 834 835 835 836 836 836 836 836 836 836 835 835 835 834 833 833 832 831 831 830 830
760 761 762 764 765 764 764 767 768 769 770 770 774 773 770 767 772 780 774 765 764 763 763 762 764 768 769 770 771 772 773 774 776 778 781 783 785 788 789 792 793 795 797 799 801 803 805 807 809 811 813 815 816 818 819 820 821 822 823 823 824 825 826 826 827 828 828 829 829 830 830 830 832 832 833 833 834 834 835 835 835 835 835 835 835 835 834 835 834 834 833 832 832 831 830 829 829
757 761 764 764 764 765 765 767 767 770 772 771 772 771 771 771 772 777 771 761 761 763 764 763 764 768 767 770 772 772 773 774 776 777 780 782 784 786 788 790 792 794 796 798 800 802 804 806 808 810 812 814 815 817 817 819 820 821 822 822 823 824 824 825 826 827 827 828 828 828 829 829 830 831 832 832 833 833 833 834 834 834 834 834 834 834 834 834 834 833 832 832 832 831 830 829 828
758 759 765 766 765 769 767 766 766 769 774 770 771 777 778 774 770 768 762 757 758 762 764 763 764 766 767 769 771 772 773 774 776 777 778 781 783 785 787 789 791 793 795 797 799 801 803 805 807 809 811 812 813 815 816 817 818 819 820 821 822 823 823 824 825 826 826 826 827 827 828 828 829 830 831 831 832 832 833 833 833 833 833 833 833 833 833 833 833 832 832 831 830 830 829 827 826
759 757 765 769 771 775 767 764 766 768 773 768 773 787 787 775 765 761 757 756 760 763 765 764 764 766 768 770 771 773 773 773 775 776 778 780 782 784 785 788 790 792 794 796 798 800 802 804 806 808 809 811 812 814 815 816 817 818 819 820 821 821 822 823 824 824 825 825 826 826 827 827 828 829 830 830 831 831 832 832 832 832 832 833 833 833 832 832 832 831 830 830 829 828 827 825 825
758 758 764 761 766 776 767 762 767 771 773 767 772 786 784 773 764 759 755 756 760 765 766 764 765 766 769 770 771 773 772 772 773 774 777 779 781 783 785 787 789 791 793 794 797 799 801 803 805 806 808 810 811 812 813 815 816 817 818 819 820 820 821 822 823 823 824 824 825 825 826 826 827 828 829 829 830 831 831 831 831 831 831 832 832 831 831 831 830 830 829 828 827 826 825 824 823
757 762 767 755 757 772 767 761 765 773 773 767 774 785 781 773 766 758 754 757 760 764 766 764 765 766 768 770 770 772 771 770 772 773 776 778 780 782 784 786 788 790 791 794 796 797 800 801 803 805 806 808 809 811 812 814 815 816 817 818 819 820 820 821 822 822 823 824 824 825 825 825 826 827 827 828 829 830 830 830 830 830 831 831 830 830 830 830 829 828 828 827 826 825 825 823 822
755 758 765 762 760 768 771 767 762 768 775 772 776 784 781 773 764 758 755 757 759 763 765 764 764 765 766 769 768 770 771 771 772 773 775 778 779 781 783 785 787 789 790 792 794 796 798 800 802 804 805 807 808 810 812 813 814 815 816 817 818 819 819 820 821 821 822 822 823 824 824 824 825 826 826 827 828 829 829 829 829 829 830 830 830 830 829 829 828 827 826 826 826 825 824 822 821
760 756 759 763 759 762 774 777 765 766 776 776 777 780 778 771 764 761 757 755 758 762 765 764 763 764 765 766 767 769 771 772 773 772 774 776 779 781 782 784 786 788 790 791 793 795 797 799 801 803 804 806 808 809 811 812 813 814 815 816 817 817 818 819 819 820 820 821 821 822 823 823 824 825 825 826 827 828 828 828 828 829 829 829 829 828 828 827 826 825 825 824 825 824 823 822 820
770 766 764 764 758 756 765 773 769 769 777 778 779 780 775 769 764 762 758 754 758 760 761 762 761 763 764 765 767 768 770 772 771 771 774 775 778 780 782 784 786 787 789 791 792 794 796 798 800 802 804 805 807 808 810 811 812 813 814 814 815 816 817 817 818 818 819 819 820 821 821 822 823 824 824 825 826 826 827 827 827 828 828 828 827 826 825 825 824 824 823 823 823 823 822 821 820
768 766 763 764 761 756 755 763 765 765 775 779 778 778 773 769 767 763 759 756 758 760 758 760 761 761 763 764 765 767 769 769 768 769 772 774 776 779 781 783 785 787 788 790 792 793 795 797 799 801 803 804 806 807 808 810 811 812 812 813 814 815 816 816 817 817 818 818 819 820 821 821 822 823 823 824 824 825 825 826 826 826 826 826 826 825 824 823 823 822 822 822 822 821 821 820 819
762 762 759 757 759 759 753 758 761 759 772 777 771 773 769 765 764 760 759 758 760 761 760 761 761 761 762 763 764 766 767 766 764 767 770 773 775 777 780 782 784 786 788 789 791 792 794 795 798 799 801 803 804 805 806 808 809 810 811 811 812 813 814 815 815 816 816 817 818 819 820 821 821 822 822 822 823 823 824 824 824 825 825 824 824 823 823 822 822 821 821 821 821 820 819 818 817
761 759 755 753 755 758 754 755 756 756 768 771 765 771 769 762 760 757 756 758 759 758 759 761 760 760 761 762 763 764 765 763 762 765 768 770 773 775 778 781 782 784 786 788 789 791 793 794 796 798 799 801 802 803 805 806 807 808 809 810 810 811 812 813 814 814 815 816 817 817 818 819 820 820 821 821 821 822 822 823 823 823 823 823 823 822 822 821 821 821 820 819 819 818 817 817 817
759 754 751 753 750 753 757 754 752 754 767 771 765 768 766 757 756 754 753 754 753 750 752 756 757 759 761 761 762 763 763 763 762 763 765 767 770 773 776 779 780 782 784 786 788 789 791 792 794 796 797 799 800 802 803 804 806 807 808 809 809 810 811 812 812 813 814 815 815 816 817 817 818 818 819 819 820 820 820 821 821 821 822 822 822 821 821 820 820 820 819 818 817 816 816 816 816
753 750 750 753 747 752 763 760 755 754 761 766 763 765 761 753 754 753 749 750 749 747 747 749 752 755 757 757 758 759 761 763 763 762 762 764 768 771 774 776 778 780 781 783 785 787 789 790 792 794 795 797 798 800 801 803 805 806 807 808 809 809 810 811 811 812 812 813 814 814 815 815 816 816 817 818 818 818 819 819 819 820 820 820 820 820 819 819 819 818 817 816 816 815 814 814 815
748 746 750 752 748 749 756 758 757 755 756 756 759 775 772 756 757 755 747 748 749 748 748 748 748 749 751 752 753 755 757 760 762 762 761 761 764 768 771 774 776 777 779 780 782 784 786 788 790 792 793 795 797 798 800 802 803 804 805 807 808 809 809 810 810 810 811 811 812 812 813 814 814 814 815 816 816 817 817 817 817 818 818 818 818 817 817 816 816 815 815 815 815 815 814 813 813
751 745 745 745 745 745 750 756 758 762 766 755 754 782 783 757 755 755 746 749 752 749 748 749 748 747 749 751 752 753 753 755 757 758 759 759 761 765 768 771 773 774 776 778 779 781 783 785 787 790 791 793 795 797 798 800 802 802 804 805 806 807 807 807 807 808 808 809 810 811 812 812 812 813 813 814 814 814 815 814 814 815 816 815 815 815 814 814 813 813 812 813 813 813 813 812 812
757 744 739 739 739 741 749 755 758 762 766 752 746 769 775 757 754 751 743 748 751 748 748 747 745 746 747 748 749 750 751 751 753 755 755 757 759 762 765 768 770 772 773 776 777 779 780 783 785 787 790 791 793 795 796 798 799 800 802 803 804 805 804 804 805 806 807 807 808 809 810 811 811 811 811 812 812 812 812 812 812 813 813 813 813 813 812 812 811 810 810 810 811 811 811 811 811
754 739 737 740 739 741 747 751 754 752 752 750 745 753 766 759 747 738 737 745 748 746 747 745 742 743 743 744 745 746 747 748 749 752 753 753 756 759 762 764 766 769 771 773 774 776 778 780 783 785 787 789 791 793 794 795 797 798 800 801 802 802 802 802 804 805 806 806 807 808 808 809 809 809 809 809 810 810 810 810 810 810 811 811 811 811 810 810 809 809 809 809 810 810 810 810 809
745 735 737 740 739 741 741 745 748 744 752 760 749 747 763 759 738 730 733 741 748 745 743 742 739 739 740 740 741 741 743 743 744 748 749 750 753 756 759 761 764 766 768 769 771 773 775 778 781 783 785 787 789 791 792 793 794 796 798 799 800 800 800 801 802 803 804 805 805 806 806 806 807 807 807 807 807 808 808 808 809 809 809 809 809 809 808 808 808 808 808 808 808 808 808 808 808
737 733 738 737 737 737 739 743 743 746 760 764 747 744 760 755 737 735 740 741 742 738 736 737 734 734 736 736 737 738 739 740 741 743 745 747 750 753 756 758 761 763 765 767 769 771 773 775 778 781 782 784 786 788 790 791 792 794 795 796 797 798 798 799 801 801 802 803 803 803 803 803 804 805 804 804 804 805 806 806 806 807 807 807 807 807 806 806 806 806 806 806 806 806 806 806 806
733 735 742 742 738 737 740 741 742 758 768 758 743 741 754 757 739 730 735 732 725 724 728 731 729 729 732 732 733 734 735 737 738 739 741 744 747 750 753 755 757 760 762 764 766 768 770 772 775 778 780 782 784 785 787 788 790 792 793 794 794 795 796 797 798 799 800 800 800 800 801 801 801 802 802 802 801 802 803 803 804 805 805 805 804 804 804 803 803 803 803 803 804 804 804 804 804
736 741 746 753 750 745 750 749 750 767 770 753 741 735 748 761 742 720 718 714 708 712 718 722 724 725 727 728 729 729 731 733 735 737 739 740 744 747 749 752 754 757 759 761 763 765 768 770 772 775 778 780 781 783 784 786 788 789 790 791 792 792 793 795 795 796 797 797 797 797 798 799 799 799 799 799 799 799 800 800 801 801 802 801 801 801 801 801 801 801 800 800 801 801 802 802 802
738 742 750 766 769 765 770 766 759 762 759 745 736 739 751 751 728 711 708 706 704 705 705 710 716 719 722 724 725 726 727 730 732 735 737 738 741 743 745 749 751 754 756 758 761 762 765 767 770 773 775 777 779 780 782 784 785 786 787 788 789 789 791 792 792 793 794 794 795 795 796 796 796 796 796 796 796 796 797 797 798 798 798 798 798 798 798 799 799 799 798 798 798 798 798 798 798
740 742 753 772 778 782 784 770 760 759 751 738 732 741 750 737 717 706 703 701 699 698 698 701 706 711 717 719 721 723 724 726 729 731 733 735 737 740 742 745 748 751 754 756 758 761 762 765 768 770 773 774 776 778 779 781 782 783 785 786 786 787 788 789 789 790 791 792 792 793 793 793 793 793 793 793 793 793 794 795 795 795 795 795 795 796 796 796 796 796 796 796 795 795 795 795 795
735 730 741 761 768 782 785 766 764 765 751 739 738 745 745 733 717 701 696 697 694 695 696 696 700 704 709 714 717 720 722 723 725 727 730 732 733 737 740 743 746 748 751 753 756 759 761 763 766 768 770 772 774 775 777 779 780 781 782 783 784 785 786 786 787 787 788 789 789 790 790 790 790 790 790 790 790 791 792 792 793 793 794 794 793 793 793 793 793 793 793 793 792 792 791 791 792
733 723 740 756 752 762 769 757 757 762 758 748 741 738 726 712 702 690 691 697 693 694 696 697 702 702 705 713 715 717 720 720 722 724 727 729 730 735 738 741 744 746 750 752 753 756 759 761 764 766 768 770 772 773 774 776 777 778 780 780 781 782 783 784 784 784 784 785 786 787 787 787 787 787 787 788 788 788 789 789 790 791 791 792 791 791 791 791 791 790 789 789 788 788 787 787 788
734 733 745 742 732 741 758 761 751 752 768 760 737 730 717 706 704 692 692 699 697 697 698 699 703 702 706 712 712 714 716 717 719 721 724 726 728 732 735 738 742 744 747 749 751 754 756 759 762 764 766 768 770 771 772 774 775 776 777 778 778 779 780 780 780 781 781 782 783 783 784 784 785 785 785 785 785 786 786 786 787 788 788 789 789 789 789 788 788 787 786 785 784 783 783 783 784
736 749 740 726 732 739 749 768 768 763 772 758 736 735 729 726 723 702 693 702 702 700 700 701 703 704 708 710 709 711 712 713 716 717 720 724 725 729 733 736 739 741 744 747 750 752 754 757 759 761 763 765 767 769 770 772 772 774 774 775 776 776 776 777 777 778 779 780 781 780 781 782 782 782 782 783 783 783 783 783 784 785 785 786 786 786 786 785 785 784 783 782 781 780 780 779 780
727 739 726 726 751 759 757 771 778 779 779 757 739 738 730 727 722 704 699 702 701 702 701 702 705 705 707 707 707 709 710 712 715 716 719 721 723 726 730 733 736 739 742 744 747 750 752 755 757 759 761 763 765 766 767 769 770 771 772 772 773 773 774 775 775 777 777 778 778 778 779 779 779 780 780 780 780 780 780 780 780 781 781 782 782 782 783 783 783 782 781 780 779 778 777 777 777
722 726 723 726 741 751 757 758 758 775 785 764 748 744 732 718 708 703 703 696 696 704 703 702 703 702 702 703 705 708 710 712 714 715 717 718 721 724 727 731 733 736 740 741 744 747 749 753 755 757 759 761 763 764 765 767 768 769 769 769 770 771 772 773 773 774 775 775 776 776 777 777 777 777 777 777 778 777 777 777 777 778 778 778 778 778 779 780 780 780 780 779 778 777 775 773 773
731 736 736 733 732 734 746 749 743 757 776 773 766 758 734 711 699 700 701 693 691 698 700 700 698 696 698 698 701 706 709 711 712 713 715 716 719 721 724 729 731 734 737 739 742 744 746 750 752 754 757 759 760 761 763 764 765 766 767 767 769 769 770 771 771 772 773 773 774 774 775 776 775 776 776 776 775 775 775 775 776 777 777 777 776 776 775 776 776 777 778 779 778 777 775 772 769
723 733 733 732 738 743 755 762 746 738 752 762 768 763 736 706 696 697 697 694 690 688 691 696 694 693 695 696 699 704 707 709 710 710 712 713 716 719 721 726 729 732 734 737 740 742 744 747 750 752 755 756 758 759 760 761 762 763 764 765 767 768 768 769 769 770 771 772 773 773 773 773 773 773 773 773 773 773 774 774 775 776 776 777 777 775 774 773 773 773 773 774 774 776 776 773 768